{"data":{"norad_id":56377,"intl_designator":"2023-061D","name":"STARLINK-6189","alt_names":[],"object_type":"PAYLOAD","status":"ACTIVE","operator":null,"country":"US","launch_date":"2023-05-04","launch_site_code":"AFETR","launch_vehicle":null,"mission":null,"orbit_class":"UNKNOWN","rcs_meters":null,"size_class":null,"mass_kg":null,"dimensions":null,"purposes":["comms"],"wikipedia_slug":null,"has_3d_model":false,"image_url":null,"decayed_at":null,"tle_current":{"epoch":"2026-09-20T01:59:07.961856Z","epoch_age_seconds":148072,"freshness":"FRESH","line1":"1 56377U 23061D   26263.08273104 -.00000029  00000+0  84862-5 0  9998","line2":"2 56377  43.0040 180.5778 0001226 259.5227 100.5487 15.27575440186471","mean_motion":15.2757544,"eccentricity":0.0001226,"inclination_deg":43.004,"raan_deg":180.5778,"arg_perigee_deg":259.5227,"mean_anomaly_deg":100.5487,"bstar":8.4862e-6,"rev_number":18647,"period_min":94.267030111456,"perigee_km":482.22156726468,"apogee_km":483.90393344346,"semimajor_km":6861.1997503541,"source":"CELESTRAK","updated_at":"2026-09-21T09:00:33.430752Z"}}}